Location: Observatory
(52.1446°N, 0.4624°W)
Time: 02:06:15
(UTC+01:00)

ISS - Pass Details

Date: 18 May 2018
Orbit: 402 x 406 km, 51.6° (Epoch: 21 June)

Event Time Altitude Azimuth Distance (km) Brightness Sun altitude
Exits shadow 02:16:12 22° 263° (W) 942 -2.2 -16.4°
Maximum altitude 02:18:10 83° 178° (S) 411 -4.0 -16.3°
Drops below altitude 10° 02:21:27 10° 89° (E) 1,459 -0.8 -16.1°
Sets 02:23:33 0° 89° (E) 2,330 0.3 -16.0°
